Location: Bersée
(50.4798°N, 3.1477°E)
Time: 10:23:10
(UTC+00:00)

Daily predictions for brighter satellites

Satellite Brightness Start Highest point End
(mag) Time Altitude Azimuth Time Altitude Azimuth Time Altitude Azimuth
Cosmos 1151 Rocket 3.0 20:09:20 10° S 20:13:34 65° E 20:17:49 10° NNE
Cosmos 1470 Rocket 4.1 20:09:42 10° N 20:13:52 42° ENE 20:17:58 10° SE
BREEZE-M DEB (TANK) 3.7 20:10:52 10° SW 20:14:05 60° SSE 20:23:57 10° ENE
Landsat 7 4.4 20:11:22 10° S 20:16:01 59° W 20:20:41 10° NNW
Cosmos 44 3.5 20:12:22 10° NW 20:16:37 54° SW 20:20:50 10° SSE
Meteor 1-27 Rocket 4.5 20:14:26 10° SSE 20:19:36 36° E 20:24:53 10° NNE
Cosmos 1315 Rocket 2.9 20:16:51 10° NNW 20:20:58 90° NE 20:25:02 10° S
Sich 1 4.3 20:21:04 10° NNW 20:25:14 42° W 20:29:20 10° SSW
Meteor 1-11 Rocket 4.0 20:19:16 10° N 20:25:14 66° ENE 20:31:10 10° SSE
Cosmos 1697 Rocket 3.5 20:21:34 10° SSE 20:26:28 31° ESE 20:31:24 10° NE
Cosmos 2297 Rocket 2.4 20:22:00 10° NNW 20:27:41 78° WSW 20:33:19 10° SSE
Spot 2 Rocket 4.1 20:23:24 10° SE 20:28:08 44° ENE 20:32:56 10° N
Cosmos 1515 Rocket 4.2 20:27:41 10° SSE 20:31:41 36° E 20:35:43 10° NNE
BREEZE-M DEB (TANK) 2.1 20:31:33 10° WSW 20:34:21 44° SSE 20:36:28 10° E
USA 245 4.4 20:33:38 10° SSE 20:39:11 78° ENE 20:45:31 10° NNW
ARIANE 5 R/B 3.8 20:36:25 10° SE 20:40:17 30° ENE 20:44:14 10° N
SPOT 1/Viking Rocket 4.0 20:37:32 10° S 20:42:40 62° WSW 20:47:49 10° NNW
ATLAS 2AS CENTAUR R/B 4.1 20:40:55 10° SSE 20:46:20 21° ESE 20:51:40 10° ENE
CARTOSAT-1 3.6 20:42:29 10° SSE 20:46:48 86° W 20:51:09 10° NNW
NOSS 3-4 (A) 3.6 20:44:41 10° SSW 20:50:06 47° ESE 20:55:58 10° NE
NOSS 3-4 (C) 3.6 20:44:45 10° SSW 20:50:12 47° ESE 20:56:04 10° NE
ATLAS CENTAUR R/B 4.4 20:50:22 10° NNW 20:53:21 16° N 20:56:20 10° NE
Aureole 1 Rocket 3.1 20:52:59 11° S 20:55:53 31° ESE 20:58:36 10° NE
Cosmos 2219 3.3 20:53:08 10° NNW 20:58:47 74° WSW 21:03:54 12° SSE
Cosmos 921 Rocket 3.5 20:55:27 10° NNW 20:59:53 51° ENE 21:03:26 15° SE
RESURS DK-1 4.4 21:00:59 11° ESE 21:01:33 11° ESE 21:02:46 10° E
CZ-4B R/B 3.3 20:58:48 10° N 21:01:42 31° WNW 21:04:34 10° SW
Cosmos 482 Debris 4.0 20:59:45 10° WNW 21:02:31 74° NNE 21:06:47 10° E
USA 267 3.8 20:56:12 10° E 21:02:35 58° NNE 21:08:58 10° WNW
H-2A R/B 4.0 20:59:48 10° N 21:03:23 29° WNW 21:06:55 10° SW
Cosmos 1536 3.0 21:02:57 10° NNW 21:06:58 70° W 21:10:43 11° S
Cosmos 389 Rocket 2.4 21:03:48 10° NNW 21:07:18 89° WSW 21:10:02 16° S
SPOT 5 3.1 21:03:09 12° SSE 21:08:05 87° ENE 21:13:19 10° NNW
Cosmos 2082 3.7 21:03:32 10° NNW 21:09:13 77° ENE 21:13:46 16° SE
Cosmos 2034 Rocket 4.2 21:05:06 10° S 21:11:14 59° E 21:17:28 10° NNE
Cosmos 1184 Rocket 2.7 21:09:25 16° S 21:11:39 56° E 21:14:38 10° NNE
Helios 1A Rocket 3.1 21:08:57 12° S 21:12:34 65° WSW 21:16:35 10° NNW
Cosmos 2292 Rocket 4.0 21:12:28 10° N 21:15:29 29° ENE 21:16:59 19° ESE
Cosmos 405 4.4 21:12:41 10° NNW 21:15:47 33° W 21:18:53 10° SSW
Okean 1 3.7 21:14:48 17° SSE 21:17:34 45° E 21:21:25 10° NNE
Cosmos 968 Rocket 4.1 21:12:33 10° SW 21:17:39 60° WNW 21:22:44 10° NNE
Cosmos 1515 3.8 21:14:03 10° SSW 21:17:49 73° WNW 21:21:37 10° N
ERS-1 Rocket 3.0 21:13:55 14° SSE 21:18:13 87° WSW 21:23:18 10° NNW
ATLAS 3B R/B 3.7 21:13:59 10° NW 21:20:54 46° NNE 21:28:06 10° ESE
Geosat 4.1 21:17:27 17° SE 21:21:21 76° NE 21:26:24 10° NNW
Cosmos 1743 3.3 21:18:42 10° NNW 21:22:25 53° W 21:25:38 13° S
Meteor 1-19 Rocket 4.3 21:17:59 14° S 21:22:31 53° E 21:27:47 10° NNE
ISS -3.6 21:21:19 10° W 21:24:41 73° N 21:28:02 10° E
Cosmos 2263 Rocket 2.6 21:19:34 10° NNW 21:25:06 56° NE 21:29:18 17° SE
BREEZE-M (TANK) 4.3 21:22:48 10° WSW 21:27:22 80° SSE 21:48:04 10° E
Cosmos 2344 3.5 21:22:20 10° SSW 21:29:37 59° ESE 21:37:09 10° NE
Cosmos 1933 Rocket 4.1 21:26:04 10° NNW 21:30:28 56° W 21:34:14 14° S
SL-4 R/B 2.5 21:27:14 10° WNW 21:31:36 48° SSW 21:34:00 23° SE
Terra 1.9 21:29:55 18° S 21:33:31 80° WSW 21:38:19 10° NNW
Cosmos 2227 Rocket 3.3 21:28:36 10° NW 21:33:49 38° WSW 21:38:31 12° S
Resurs 01 Rocket 4.1 21:31:28 10° SW 21:34:16 16° W 21:37:03 10° NW
Cosmos 1975 3.4 21:31:04 10° N 21:35:01 47° ENE 21:37:13 23° SE
SWAS 4.4 21:31:04 10° NNW 21:35:24 87° ENE 21:38:01 23° SSE
Cosmos 1733 Rocket 4.0 21:37:12 10° N 21:41:21 37° ENE 21:43:44 21° SE
Meteor 2-4 Rocket 4.3 21:37:43 20° SSE 21:41:24 44° E 21:46:46 10° NNE
Cosmos 1340 3.4 21:38:25 10° SSW 21:42:04 50° WNW 21:45:44 10° N
Cosmos 2369 3.6 21:40:49 10° SSW 21:46:26 72° ESE 21:52:06 10° NNE
Cosmos 783 Rocket 4.5 21:43:07 10° NNW 21:48:22 84° WSW 21:51:38 23° SSE
Cosmos 1980 Rocket 2.2 21:43:23 10° SSW 21:48:53 66° ESE 21:54:30 10° NNE
CZ-2C R/B 4.1 21:47:00 10° N 21:51:44 70° WNW 21:56:25 10° SSW
Cosmos 2322 Rocket 3.8 21:53:11 15° ESE 21:54:33 17° E 21:57:58 10° ENE
Meteor 2-21 Rocket 4.5 21:49:37 10° NNW 21:55:43 84° W 22:00:00 21° S
Cosmos 1354 Rocket 4.0 21:51:12 14° SSW 21:55:48 76° ESE 22:01:08 10° NNE
SJ 16-02 1.3 21:56:08 22° S 21:58:52 67° ESE 22:03:13 10° NNE
Cosmos 2228 Rocket 3.1 21:55:45 20° S 21:58:56 90° N 22:03:31 10° N
Meteor 1-18 Rocket 4.2 21:56:11 20° S 22:00:19 73° E 22:05:58 10° NNE
Cosmos 1777 Rocket 4.1 22:01:35 22° S 22:04:49 59° ESE 22:09:58 10° NNE
SAR-Lupe-4 3.5 22:01:45 10° NNE 22:05:22 87° ESE 22:07:08 29° SSW
Cosmos 1844 Rocket 4.0 22:01:42 10° NNW 22:06:43 32° NE 22:11:24 11° ESE
USA 81 4.0 22:03:55 24° S 22:07:07 72° E 22:12:23 10° N
CZ-4C R/B 4.3 22:01:54 10° NW 22:07:35 32° NNE 22:14:19 10° E
USA 215 3.4 22:02:04 10° ENE 22:08:25 50° SE 22:14:45 10° SSW
Cosmos 2227 4.3 22:03:07 10° NNW 22:08:54 77° ENE 22:12:24 25° SE
Iridium 2 4.1 22:05:55 10° N 22:09:35 47° E 22:10:50 33° SE
Cosmos 1697 Rocket 3.5 22:04:39 10° SW 22:10:12 53° NW 22:15:46 10° NNE
Cosmos 2297 Rocket 4.5 22:07:58 10° WNW 22:10:46 14° W 22:13:33 10° SW
Cosmos 1092 Rocket 4.1 22:05:01 10° NNW 22:11:12 69° W 22:15:25 21° S
Cosmos 773 Rocket 4.4 22:08:56 10° NNW 22:14:03 54° WSW 22:16:57 25° S
Meteor 1-4 Rocket 3.5 22:12:11 10° N 22:15:22 34° ENE 22:16:23 28° ESE
ARIANE 5 R/B 3.7 22:13:52 19° SSW 22:16:39 37° W 22:20:52 10° NNW
Cosmos 1726 4.0 22:15:32 10° NNE 22:18:16 19° ENE 22:19:37 16° E
Cosmos 1634 Rocket 4.0 22:14:35 21° S 22:19:00 88° E 22:25:15 10° N
Iridium 4 Rocket 4.0 22:24:43 10° NNE 22:28:48 37° E 22:30:35 26° SE
SL-16 R/B 2.8 22:27:38 29° SSE 22:29:50 40° ESE 22:35:06 10° NE
Cosmos 1733 3.4 22:28:30 10° N 22:32:16 56° ENE 22:33:22 39° SE
Cosmos 44 Rocket 3.1 22:28:53 10° NW 22:33:37 79° SW 22:35:37 34° SSE
ATLAS CENTAUR R/B 3.6 22:29:26 10° NNW 22:33:41 28° NNE 22:37:51 10° E
Cosmos 1378 4.0 22:34:16 23° SW 22:36:11 45° WNW 22:39:44 10° N
ATLAS 2AS CENTAUR R/B 2.9 22:28:31 10° SSW 22:36:18 76° SE 22:43:49 10° NE
Cosmos 1346 Rocket 2.8 22:35:44 34° SSW 22:37:24 81° WNW 22:41:27 10° N
Cosmos 1538 Rocket 4.0 22:32:34 10° NNW 22:37:52 78° WSW 22:40:18 32° SSE
RESURS DK-1 2.3 22:36:47 29° SSW 22:38:50 88° ESE 22:42:59 10° NNE
NOSS 3-4 (A) 4.4 22:35:20 10° WSW 22:40:59 49° NW 22:47:13 10° NE
NOSS 3-4 (C) 4.4 22:35:24 10° WSW 22:41:04 49° NW 22:47:19 10° NE
ADEOS Rocket 3.6 22:40:52 21° SE 22:44:14 44° ENE 22:49:49 10° N
USA 267 3.2 22:40:37 19° SE 22:45:30 78° SW 22:52:05 10° WNW
Cosmos 2278 3.8 22:42:30 15° SW 22:47:12 77° WNW 22:52:56 10° NNE
Cosmos 1707 Rocket 4.1 22:46:00 24° SW 22:48:30 53° WNW 22:52:51 10° N
SL-24 R/B - RUBIN 2 3.7 22:49:34 10° NW 22:53:53 58° SW 22:55:13 40° S
Okean 1-7 3.5 22:54:08 36° SE 22:55:23 46° E 22:59:35 10° NNE
Cosmos 923 Rocket 4.1 22:51:09 10° NNW 22:56:30 73° ENE 22:59:07 31° SE
ISS -3.3 22:58:09 10° WNW 23:00:55 45° WSW 23:00:55 45° WSW
Cosmos 1703 Rocket 4.0 23:00:19 37° SE 23:01:37 50° E 23:05:56 10° NNE
Cosmos 2360 Rocket 3.0 23:00:23 29° SE 23:02:03 34° ESE 23:07:06 10° NE
Cosmos 1818 4.2 22:59:33 10° NW 23:04:56 54° NE 23:09:12 16° ESE
Cosmos 1842 4.3 23:06:04 29° ESE 23:06:44 31° E 23:10:11 10° NNE
Cosmos 2263 Rocket 3.4 23:03:58 10° NW 23:08:43 29° WSW 23:10:59 22° SW
SL-4 R/B 4.3 23:08:20 10° WSW 23:09:26 12° WSW 23:09:26 12° WSW
Cosmos 2242 Rocket 4.1 23:09:15 36° SE 23:10:37 48° E 23:15:02 10° NNE
Cosmos 1441 Rocket 3.3 23:09:48 42° SW 23:10:52 64° WNW 23:14:35 10° N
Terra 4.3 23:10:25 10° WSW 23:12:04 12° W 23:13:42 10° WNW
ATLAS 3B R/B 2.9 23:04:49 10° NW 23:12:06 69° SW 23:16:23 28° SSE
Cosmos 2278 Rocket 4.5 23:08:35 10° NNW 23:12:52 21° NE 23:17:07 10° E
NOSS 3-1 (C) 4.5 23:05:57 10° NW 23:12:54 60° NE 23:21:15 10° ESE
Spot 4 4.2 23:11:37 34° SSW 23:13:26 55° W 23:18:11 10° NNW
Cosmos 1782 Rocket 3.7 23:09:52 10° N 23:14:12 62° ENE 23:15:37 39° SE
Cosmos 1937 Rocket 4.3 23:13:31 29° SE 23:15:02 35° ESE 23:19:49 10° NE
NOSS 2-1 (E) 2.7 23:15:19 64° ESE 23:15:19 64° ESE 23:18:30 10° NE
Cosmos 1066 Rocket 4.3 23:12:30 29° SSW 23:15:35 79° WNW 23:21:19 10° N
ALOS 2 2.6 23:15:18 43° S 23:16:42 76° WSW 23:21:07 10° NNW
Cosmos 2112 Rocket 4.1 23:11:54 10° NNW 23:17:16 72° ENE 23:19:52 31° SE
Cosmos 2266 Rocket 4.0 23:11:13 10° NNW 23:17:32 80° W 23:20:37 32° S
Iridium 51 4.3 23:16:57 46° SW 23:17:36 55° W 23:21:02 10° N
Meteor 1-23 Rocket 4.5 23:16:51 33° SSE 23:19:24 61° E 23:25:09 10° NNE
Cosmos 1680 Rocket 3.5 23:14:41 10° NNW 23:20:02 85° ENE 23:22:24 34° SSE
Cosmos 1908 Rocket 3.8 23:21:34 10° NNW 23:25:50 57° W 23:27:06 40° SSW
Okean 3 3.4 23:26:58 48° S 23:28:04 75° E 23:32:18 10° NNE
Cosmos 2333 Rocket 3.2 23:26:56 27° SE 23:28:38 32° ESE 23:33:35 10° NE
Cosmos 1805 4.3 23:26:14 10° NNW 23:29:47 34° W 23:30:41 30° WSW
ERS-2 2.1 23:28:21 10° NNE 23:31:59 76° WNW 23:32:44 53° SW
Cosmos 1980 Rocket 4.0 23:28:27 10° WSW 23:33:21 29° NW 23:38:17 10° NNE
Meteor 2-10 4.5 23:30:07 10° NNW 23:35:18 51° W 23:37:21 32° SSW
MINOTAUR IV R/B 4.5 23:33:53 41° SSW 23:35:24 87° ESE 23:39:56 10° NNE
H-2A R/B 3.9 23:32:31 10° N 23:36:32 55° WNW 23:38:02 34° SW
Cosmos 1898 Rocket 3.5 23:35:22 37° S 23:37:28 71° ESE 23:42:47 10° NNE
Cosmos 1766 3.6 23:33:44 10° NNW 23:37:34 51° W 23:38:21 43° SW
Cosmos 2322 Rocket 2.1 23:34:57 31° SSW 23:37:47 89° ESE 23:43:27 10° NNE
SJ 16-02 3.8 23:34:45 10° W 23:37:53 19° NW 23:41:02 10° N
Cosmos 1300 Rocket 3.8 23:34:25 10° N 23:38:43 60° ENE 23:40:11 38° SE
Sich 1 Rocket 4.4 23:36:02 10° N 23:40:15 43° ENE 23:42:02 29° SE
Cosmos 990 Rocket 4.0 23:37:50 32° SSW 23:40:22 79° WNW 23:45:39 10° NNE
Meteor 1-15 Rocket 4.4 23:38:06 10° NNW 23:43:38 60° W 23:46:02 33° SSW
Cosmos 1461 4.2 23:44:54 10° NNW 23:48:45 37° NE 23:52:42 10° ESE
Meteor 1-4 Rocket 4.4 23:47:35 10° NW 23:49:58 18° W 23:50:22 18° W
Cosmos 1844 Rocket 2.8 23:45:27 10° NW 23:50:56 57° WSW 23:53:02 36° S
USA 215 3.5 23:45:07 10° ENE 23:51:40 74° NNW 23:58:12 10° WSW
NOSS 2-1 (C) 3.6 23:50:44 32° W 23:51:52 49° NW 23:55:09 10° NE
Cosmos 1726 2.9 23:50:01 10° NNW 23:53:24 37° W 23:53:54 35° WSW
NOSS 2-1 (D) 3.6 23:52:23 30° W 23:53:33 47° NW 23:56:49 10° NE
